Weather History for Sheldon, IA

Change the Weather History Date:

Thursday, January 26, 2012

  Actual Average Record
Temperature  
Mean Temperature 32 °F -  
Max Temperature 39 °F 24 °F 66 °F (2002)
Min Temperature 24 °F 4 °F -25 °F (1950)
Degree Days  
Heating Degree Days 34    
Moisture  
Dew Point 28 °F    
Average Humidity 81    
Maximum Humidity 93    
Minimum Humidity 70    
Precipitation  
Precipitation 0.01 in - - ()
Sea Level Pressure  
Sea Level Pressure 29.83 in    
Wind  
Wind Speed 11 mph (WNW)    
Max Wind Speed 23 mph    
Max Gust Speed 30 mph    
Visibility 9 miles    
Events      
Averages and records for this station are not official NWS values.
T = Trace of Precipitation, MM = Missing Value Source: NWS Daily Summary

Daily Weather History Graph

Daily Weather History Graph

Search for Another Location

Airport:

Trip Planner

Search our weather history database for the weather conditions in past years. The results will help you decide how hot, cold, wet, or windy it might be!

Date:

Astronomy

Jan. 26, 2012 Rise Set
Actual Time 7:45 AM CST 5:26 PM CST
Civil Twilight 7:14 AM CST 5:57 PM CST
Nautical Twilight 6:39 AM CST 6:32 PM CST
Astronomical Twilight 6:06 AM CST 7:05 PM CST
Moon 9:05 AM CST (1/26) 9:29 PM CST (1/26)
Length of Visible Light 10h 43m
Length of Day
9h 41m
Waxing Crescent, 12% of the Moon is Illuminated
Jan 26
Waxing Crescent
Jan 30
First Quarter
Feb 7
Full
Feb 14
Last Quarter
Feb 21
New

Hourly Weather History & Observations

Time (CST) Temp. Windchill Dew Point Humidity Pressure Visibility Wind Dir Wind Speed Gust Speed Precip Events Conditions
12:15 AM 30.2 °F 22.6 °F 28.4 °F 93% 29.84 in 5.0 mi SSW 8.1 mph - N/A   Clear
12:35 AM 30.2 °F 23.4 °F 28.4 °F 93% 29.84 in 5.0 mi SSW 6.9 mph - N/A   Clear
12:55 AM 30.2 °F 21.9 °F 28.4 °F 93% 29.83 in 5.0 mi SSW 9.2 mph - N/A   Clear
1:15 AM 30.2 °F 21.3 °F 26.6 °F 86% 29.83 in 7.0 mi SSW 10.4 mph - N/A   Clear
1:35 AM 28.4 °F 19.1 °F 26.6 °F 93% 29.83 in 5.0 mi SSW 10.4 mph - N/A   Clear
1:55 AM 28.4 °F 19.7 °F 26.6 °F 93% 29.83 in 7.0 mi SSW 9.2 mph - N/A   Clear
2:15 AM 28.4 °F 19.7 °F 26.6 °F 93% 29.83 in 7.0 mi SW 9.2 mph - N/A   Clear
2:35 AM 28.4 °F 20.4 °F 26.6 °F 93% 29.85 in 5.0 mi SW 8.1 mph - N/A   Clear
2:55 AM 26.6 °F 16.8 °F 24.8 °F 93% 29.83 in 7.0 mi SW 10.4 mph - N/A   Clear
3:15 AM 28.4 °F 18.0 °F 24.8 °F 86% 29.83 in 7.0 mi WSW 12.7 mph - N/A   Clear
3:35 AM 26.6 °F 18.2 °F 24.8 °F 93% 29.83 in 7.0 mi SW 8.1 mph - N/A   Clear
3:55 AM 28.4 °F 19.7 °F 24.8 °F 86% 29.84 in 10.0 mi WSW 9.2 mph - N/A   Clear
4:15 AM 24.8 °F 19.1 °F 23.0 °F 93% 29.83 in 10.0 mi WSW 4.6 mph - N/A   Clear
4:35 AM 26.6 °F 20.0 °F 23.0 °F 86% 29.83 in 10.0 mi WSW 5.8 mph - N/A   Clear
4:55 AM 24.8 °F 19.1 °F 21.2 °F 86% 29.83 in 10.0 mi West 4.6 mph - N/A   Clear
5:15 AM 28.4 °F 17.5 °F 24.8 °F 86% 29.83 in 10.0 mi WNW 13.8 mph - N/A   Scattered Clouds
5:35 AM 35.6 °F 24.5 °F 28.4 °F 75% 29.83 in 10.0 mi WNW 20.7 mph - N/A   Mostly Cloudy
6:15 AM 33.8 °F 23.9 °F 26.6 °F 75% 29.82 in 10.0 mi WNW 15.0 mph - N/A   Mostly Cloudy
6:35 AM 33.8 °F 25.3 °F 26.6 °F 75% 29.82 in 10.0 mi West 11.5 mph - N/A   Scattered Clouds
6:55 AM 32.0 °F 22.1 °F 24.8 °F 75% 29.82 in 10.0 mi West 13.8 mph - N/A   Clear
7:15 AM 33.8 °F 24.8 °F 24.8 °F 70% 29.82 in 10.0 mi West 12.7 mph - N/A   Clear
7:35 AM 33.8 °F 23.9 °F 24.8 °F 70% 29.83 in 10.0 mi West 15.0 mph - N/A   Clear
7:55 AM 33.8 °F 25.8 °F 24.8 °F 70% 29.83 in 10.0 mi West 10.4 mph - N/A   Clear
8:15 AM 32.0 °F 21.2 °F 24.8 °F 75% 29.82 in 10.0 mi West 16.1 mph - N/A   Clear
8:35 AM 33.8 °F 22.8 °F 26.6 °F 75% 29.82 in 10.0 mi WNW 18.4 mph - N/A   Clear
8:55 AM 33.8 °F 23.5 °F 26.6 °F 75% 29.83 in 10.0 mi WNW 16.1 mph - N/A   Scattered Clouds
9:15 AM 35.6 °F 25.9 °F 28.4 °F 75% 29.83 in 10.0 mi WNW 16.1 mph - N/A   Scattered Clouds
9:35 AM 35.6 °F 26.2 °F 28.4 °F 75% 29.82 in 10.0 mi WNW 15.0 mph - N/A   Mostly Cloudy
9:55 AM 35.6 °F 25.9 °F 28.4 °F 75% 29.82 in 10.0 mi WNW 16.1 mph - 0.01 in   Scattered Clouds
10:15 AM 35.6 °F 26.2 °F 30.2 °F 81% 29.83 in 10.0 mi WNW 15.0 mph 19.6 mph N/A   Clear
10:35 AM 37.4 °F 28.9 °F 32.0 °F 81% 29.83 in 10.0 mi WNW 13.8 mph - N/A   Clear
10:55 AM 37.4 °F 28.5 °F 33.8 °F 87% 29.84 in 10.0 mi WNW 15.0 mph - N/A   Clear
11:15 AM 37.4 °F 28.2 °F 33.8 °F 87% 29.84 in 10.0 mi WNW 16.1 mph 21.9 mph N/A   Scattered Clouds
11:35 AM 37.4 °F 28.5 °F 33.8 °F 87% 29.84 in 10.0 mi NW 15.0 mph - N/A   Mostly Cloudy
11:55 AM 37.4 °F 28.9 °F 32.0 °F 81% 29.84 in 10.0 mi WNW 13.8 mph - N/A   Mostly Cloudy
12:15 PM 37.4 °F 28.5 °F 32.0 °F 81% 29.83 in 10.0 mi WNW 15.0 mph - N/A   Overcast
12:35 PM 37.4 °F 28.5 °F 32.0 °F 81% 29.82 in 10.0 mi WNW 15.0 mph - N/A   Overcast
12:55 PM 37.4 °F 26.9 °F 30.2 °F 75% 29.81 in 10.0 mi NW 20.7 mph 24.2 mph N/A   Overcast
1:15 PM 37.4 °F 26.4 °F 32.0 °F 81% 29.80 in 10.0 mi NW 23.0 mph 29.9 mph N/A   Scattered Clouds
1:35 PM 37.4 °F 27.5 °F 32.0 °F 81% 29.80 in 10.0 mi NW 18.4 mph - N/A   Clear
1:55 PM 37.4 °F 27.8 °F 32.0 °F 81% 29.80 in 10.0 mi NW 17.3 mph 21.9 mph N/A   Clear
2:15 PM 37.4 °F 28.9 °F 32.0 °F 81% 29.80 in 10.0 mi NNW 13.8 mph 23.0 mph N/A   Clear
2:35 PM 39.2 °F 31.6 °F 30.2 °F 70% 29.81 in 10.0 mi NNW 12.7 mph - N/A   Clear
2:55 PM 37.4 °F 29.3 °F 30.2 °F 75% 29.82 in 10.0 mi NW 12.7 mph - N/A   Clear
3:15 PM 37.4 °F 29.3 °F 30.2 °F 75% 29.82 in 10.0 mi NW 12.7 mph - N/A   Clear
3:35 PM 37.4 °F 28.9 °F 30.2 °F 75% 29.83 in 10.0 mi NW 13.8 mph - N/A   Clear
3:55 PM 37.4 °F 28.5 °F 30.2 °F 75% 29.84 in 10.0 mi NW 15.0 mph 21.9 mph N/A   Clear
4:15 PM 37.4 °F 29.3 °F 30.2 °F 75% 29.85 in 10.0 mi NW 12.7 mph - N/A   Clear
4:35 PM 37.4 °F 29.8 °F 28.4 °F 70% 29.85 in 10.0 mi NNW 11.5 mph - N/A   Clear
4:55 PM 35.6 °F 28.6 °F 28.4 °F 75% 29.85 in 10.0 mi NW 9.2 mph - N/A   Clear
5:15 PM 35.6 °F 28.0 °F 28.4 °F 75% 29.86 in 10.0 mi NW 10.4 mph - N/A   Clear
5:35 PM 33.8 °F 28.6 °F 26.6 °F 75% 29.86 in 10.0 mi NNW 5.8 mph - N/A   Clear
5:55 PM 32.0 °F 24.8 °F 26.6 °F 80% 29.86 in 10.0 mi NW 8.1 mph - N/A   Clear
6:15 PM 33.8 °F 27.7 °F 26.6 °F 75% 29.86 in 10.0 mi WNW 6.9 mph - N/A   Clear
6:35 PM 32.0 °F 25.6 °F 26.6 °F 80% 29.86 in 10.0 mi WNW 6.9 mph - N/A   Clear
6:55 PM 30.2 °F 24.3 °F 26.6 °F 86% 29.87 in 10.0 mi WNW 5.8 mph - N/A   Clear
7:15 PM 30.2 °F 21.9 °F 24.8 °F 80% 29.87 in 10.0 mi WNW 9.2 mph - N/A   Clear
7:35 PM 30.2 °F 22.6 °F 24.8 °F 80% 29.87 in 10.0 mi WNW 8.1 mph - N/A   Clear
7:55 PM 28.4 °F - 23.0 °F 80% 29.85 in 10.0 mi Calm Calm - N/A   Clear
8:35 PM 24.8 °F - 21.2 °F 86% 29.85 in 10.0 mi Calm Calm - N/A   Clear
8:55 PM 24.8 °F 16.9 °F 21.2 °F 86% 29.86 in 10.0 mi West 6.9 mph - N/A   Clear
9:15 PM 24.8 °F 17.9 °F 21.2 °F 86% 29.87 in 10.0 mi West 5.8 mph - N/A   Clear
9:35 PM 24.8 °F 16.1 °F 21.2 °F 86% 29.87 in 10.0 mi West 8.1 mph - N/A   Clear
9:55 PM 24.8 °F 16.1 °F 21.2 °F 86% 29.88 in 10.0 mi West 8.1 mph - N/A   Clear
10:15 PM 24.8 °F 16.1 °F 19.4 °F 80% 29.87 in 10.0 mi WNW 8.1 mph - N/A   Clear
10:35 PM 23.0 °F 17.0 °F 19.4 °F 86% 29.87 in 10.0 mi West 4.6 mph - N/A   Clear
10:55 PM 23.0 °F 18.4 °F 21.2 °F 93% 29.86 in 10.0 mi WNW 3.5 mph - N/A   Clear
11:15 PM 21.2 °F - 17.6 °F 86% 29.86 in 10.0 mi Calm Calm - N/A   Clear
11:35 PM 21.2 °F - 19.4 °F 93% 29.86 in 10.0 mi Calm Calm - N/A   Clear
11:55 PM 21.2 °F - 19.4 °F 93% 29.85 in 10.0 mi Calm Calm - N/A   Clear